Beaufort, SC

1:02 PM EST on February 23, 2017 (GMT -0500)
Beaufort Marine Corps Air Station

Weather History for KNBC - May, 2014

Change the Weather History Date:

Sunday, May 18, 2014

  Actual Average Record
Temperature  
Mean Temperature 66 °F -  
Max Temperature 80 °F 83 °F 98 °F (1960)
Min Temperature 55 °F 63 °F 51 °F (1973)
Cooling Degree Days 2    
Growing Degree Days 16 (Base 50)    
Moisture  
Dew Point 55 °F    
Average Humidity 64    
Maximum Humidity 90    
Minimum Humidity 44    
Precipitation  
Precipitation 0.00 in - - ()
Sea Level Pressure  
Sea Level Pressure 30.19 in    
Wind  
Wind Speed 4 mph (NE)    
Max Wind Speed 13 mph    
Max Gust Speed -    
Visibility 10 miles    
Events      
Averages and records for this station are not official NWS values.
T = Trace of Precipitation, MM = Missing Value Source: NWS Daily Summary

Daily Weather History Graph

Daily Weather History Graph

Search for Another Location

Airport or City:

Trip Planner

Search our weather history database for the weather conditions in past years. The results will help you decide how hot, cold, wet, or windy it might be!

Date:

Astronomy

May. 18, 2014 Rise Set
Actual Time 6:22 AM EDT 8:16 PM EDT
Civil Twilight 5:55 AM EDT 8:43 PM EDT
Nautical Twilight 5:22 AM EDT 9:16 PM EDT
Astronomical Twilight 4:47 AM EDT 9:51 PM EDT
Moon No Moon Rise 10:07 AM EDT (5/18)
Length of Visible Light 14h 48m
Length of Day
13h 53m
Waning Gibbous, 81% of the Moon is Illuminated
May 18
Waning Gibbous
May 21
Last Quarter
May 28
New
Jun 5
First Quarter
Jun 13
Full

Hourly Weather History & Observations

Time (EDT) Temp. Dew Point Humidity Pressure Visibility Wind Dir Wind Speed Gust Speed Precip Events Conditions
12:56 AM 62.1 °F 52.0 °F 70% 30.19 in 10.0 mi West 4.6 mph - N/A   Clear
1:56 AM 62.1 °F 53.1 °F 72% 30.18 in 10.0 mi West 5.8 mph - N/A   Clear
2:56 AM 61.0 °F 53.1 °F 75% 30.18 in 10.0 mi WNW 3.5 mph - N/A   Clear
3:56 AM 57.9 °F 53.1 °F 84% 30.19 in 10.0 mi Calm Calm - N/A   Clear
4:56 AM 57.9 °F 54.0 °F 87% 30.18 in 10.0 mi Calm Calm - N/A   Clear
5:56 AM 59.0 °F 55.9 °F 90% 30.19 in 10.0 mi NE 6.9 mph - N/A   Clear
6:56 AM 55.9 °F 53.1 °F 90% 30.20 in 10.0 mi ENE 3.5 mph - N/A   Clear
7:56 AM 63.0 °F 55.0 °F 75% 30.21 in 10.0 mi NE 5.8 mph - N/A   Partly Cloudy
8:56 AM 64.9 °F 54.0 °F 68% 30.21 in 10.0 mi Calm Calm - N/A   Mostly Cloudy
9:56 AM 70.0 °F 53.1 °F 55% 30.22 in 10.0 mi Calm Calm - N/A   Clear
10:56 AM 73.9 °F 54.0 °F 50% 30.21 in 10.0 mi Calm Calm - N/A   Scattered Clouds
11:56 AM 75.0 °F 52.0 °F 44% 30.20 in 10.0 mi West 8.1 mph - N/A   Mostly Cloudy
12:56 PM 77.0 °F 54.0 °F 45% 30.20 in 10.0 mi WNW 4.6 mph - N/A   Mostly Cloudy
1:56 PM 77.0 °F 55.0 °F 47% 30.19 in 10.0 mi ENE 6.9 mph - N/A   Mostly Cloudy
2:56 PM 78.1 °F 57.0 °F 48% 30.17 in 10.0 mi North 9.2 mph - N/A   Mostly Cloudy
3:56 PM 78.1 °F 55.9 °F 46% 30.16 in 10.0 mi North 5.8 mph - N/A   Mostly Cloudy
4:56 PM 78.1 °F 57.9 °F 50% 30.16 in 10.0 mi NE 11.5 mph - N/A   Mostly Cloudy
5:56 PM 73.9 °F 57.9 °F 57% 30.16 in 10.0 mi East 8.1 mph - N/A   Mostly Cloudy
6:56 PM 73.9 °F 57.9 °F 57% 30.17 in 10.0 mi ESE 3.5 mph - N/A   Mostly Cloudy
7:56 PM 71.1 °F 57.0 °F 61% 30.17 in 10.0 mi NE 8.1 mph - N/A   Mostly Cloudy
8:56 PM 68.0 °F 57.0 °F 68% 30.19 in 10.0 mi Calm Calm - N/A   Clear
9:56 PM 68.0 °F 57.0 °F 68% 30.19 in 10.0 mi East 3.5 mph - N/A   Mostly Cloudy
10:56 PM 66.9 °F 55.9 °F 68% 30.20 in 10.0 mi East 3.5 mph - N/A   Partly Cloudy
11:56 PM 66.0 °F 57.0 °F 73% 30.20 in 10.0 mi ENE 12.7 mph - N/A   Overcast